Regional Weather Roundup
Issued by NWS Sioux Falls, SD

Home | Current Version | Previous Version | Graphics & Text | Print | Product List | Glossary Off
Versions: 1 2 3 4 5 6 7 8 9 10 11 12 13 14 15 16 17 18 19 20 21 22 23 24 25 26 27 28 29 30 31 32 33 34 35 36 37 38 39 40 41 42 43 44 45 46 47 48 49 50

000
ASUS43 KFSD 262202
RWRFSD

WEATHER ROUNDUP FOR SE SOUTH DAKOTA/SW MINNESOTA/NW IOWA
NATIONAL WEATHER SERVICE SIOUX FALLS SD
500 PM CDT TUE MAY 26 2015

NOTE: "FAIR" INDICATES FEW OR NO CLOUDS BELOW 12,000 FEET WITH NO
SIGNIFICANT WEATHER AND OR OBSTRUCTIONS TO VISIBILITY.


SDZ038>040-050-052>070-262300-
SOUTHEAST SOUTH DAKOTA

CITY           SKY/WX    TMP DP  RH WIND       PRES   REMARKS
BROOKINGS      CLOUDY    66  52  59 N10       29.85S
CHAMBERLAIN    MOSUNNY   74  50  42 NW9       29.87F
HURON          MOSUNNY   77  48  35 NE9       29.83F
MADISON        FAIR      64  54  68 N13       29.86R
MITCHELL       PTSUNNY   75  53  46 VRB3      29.84F
SIOUX FALLS    CLOUDY    67  54  63 N12       29.83S
WINNER         FAIR      77  46  33 NW9G22    29.90F
YANKTON        MOSUNNY   73  52  46 NW20      29.83S
$$

MNZ071-072-080-081-089-090-097-098-262300-
SOUTHWEST MINNESOTA

CITY           SKY/WX    TMP DP  RH WIND       PRES   REMARKS
FAIRMONT       CLOUDY    59  54  82 NW12      29.80R
JACKSON        DRIZZLE   59  55  88 NW12      29.83R
LUVERNE        CLOUDY    63  54  72 N9        29.84S
MARSHALL       CLOUDY    63  52  67 NE3       29.81F
MONTEVIDEO     CLOUDY    68  57  68 CALM      29.82S
REDWOOD FALLS  CLOUDY    59  56  89 NW3       29.80F
TRACY          CLOUDY    60  56  88 N3        29.83S
WINDOM         LGT RAIN  57  55  94 N9        29.82S
WORTHINGTON    CLOUDY    57  52  82 N9        29.83S
$$

IAZ001>003-012>014-020>022-031-032-NEZ013-014-SDZ071-262300-
NORTHWEST IOWA

CITY           SKY/WX    TMP DP  RH WIND       PRES   REMARKS
DENISON        CLOUDY    63  63 100 NW13      29.82R
ESTHERVILLE    LGT RAIN  58  56  93 N12       29.81R
SIOUX CITY     PTSUNNY   67  55  65 N12       29.84R
SPENCER        CLOUDY    60  57  89 NW10      29.82R
$$

ABBREVIATIONS USED IN REMARKS
   TC - TEMPERATURE IN CELSIUS
  WCI - WIND CHILL INDEX
   HX - HEAT INDEX
  VSB - VISIBILITY




USA.gov is the U.S. government's official web portal to all federal, state and local government web resources and services.